Location: Melizzano
(41.1500°N, 14.5000°E)
Time: 20:36:24
(UTC+00:00)

Cosmos 2278 Rocket - Pass Details

Date: 11 May 2021
Orbit: 841 x 845 km, 71.0° (Epoch: 21 June)

Event Time Altitude Azimuth Distance (km) Brightness Sun altitude
Exits shadow 20:17:17 - 204° (SSW) 2,774 4.6 -20.0°
Reaches altitude 10° 20:18:08 10° 205° (SSW) 2,451 4.4 -20.1°
Maximum altitude 20:23:47 84° 293° (WNW) 851 2.2 -20.8°
Drops below altitude 10° 20:29:27 10° 22° (NNE) 2,466 5.0 -21.4°
Sets 20:31:55 0° 24° (NNE) 3,405 5.7 -21.7°
